Location: Brodeslavy
(49.9527°N, 13.5567°E)
Time: 20:25:07
(UTC+00:00)

Daily predictions for brighter satellites

Satellite Brightness Start Highest point End
(mag) Time Altitude Azimuth Time Altitude Azimuth Time Altitude Azimuth
Cosmos 2237 Rocket 3.2 19:52:04 10° NW 19:57:24 43° WSW 20:02:44 10° S
Spot 2 Rocket 3.6 19:52:44 10° SSE 19:57:47 76° ENE 20:02:53 10° NNW
ERS-1 Rocket 3.3 19:54:13 10° S 19:59:12 67° WSW 20:04:12 10° NNW
Cosmos 1633 Rocket 3.5 20:00:15 10° NNW 20:04:31 62° W 20:08:46 10° S
Cosmos 2123 Rocket 4.3 19:58:51 10° SSE 20:04:53 52° E 20:10:54 10° NNE
Cosmos 1459 Rocket 4.1 20:00:01 10° N 20:06:23 80° E 20:12:46 10° SSE
COSMOS 2455 3.8 20:06:14 10° NW 20:11:51 42° WSW 20:17:27 10° S
Cosmos 1328 Rocket 4.3 20:12:40 10° SSW 20:16:59 56° WNW 20:21:20 10° N
DNEPR-1 R/B 4.3 20:12:14 10° SSW 20:18:01 52° ESE 20:22:50 10° NE
NOSS 3-1 (C) 4.4 20:12:07 10° NW 20:18:45 56° NE 20:27:02 10° ESE
Okean-O 3.7 20:16:33 10° S 20:20:42 41° W 20:24:53 10° NNW
Terra 2.7 20:16:20 10° S 20:20:52 47° W 20:25:26 10° NNW
SL-8 R/B 4.1 20:16:50 10° W 20:21:24 47° SSW 20:25:57 10° SE
IRS-1C Rocket 4.2 20:16:42 10° SSE 20:21:58 87° WSW 20:27:15 10° NNW
Cosmos 1802 Rocket 4.1 20:17:59 10° N 20:24:28 83° E 20:30:52 10° S
Cosmos 1758 3.9 20:20:58 10° NNW 20:24:35 49° W 20:28:10 10° S
Cosmos 1140 Rocket 4.3 20:21:16 10° SSE 20:25:44 31° ESE 20:30:14 10° NE
Cosmos 1470 Rocket 4.2 20:24:04 10° NNW 20:28:19 54° W 20:32:34 10° S
Cosmos 2297 Rocket 3.7 20:24:18 10° WSW 20:29:40 42° NW 20:35:03 10° NNE
Meteor 1-15 Rocket 4.4 20:25:34 10° NNW 20:31:12 78° W 20:36:44 10° S
Cosmos 2061 Rocket 4.3 20:25:23 10° N 20:31:35 57° ENE 20:37:23 11° SSE
Cosmos 2016 Rocket 4.1 20:29:07 10° N 20:35:30 84° E 20:41:53 10° S
Cosmos 1455 4.2 20:35:46 10° NW 20:37:21 14° W 20:38:57 10° SW
GP-B 3.6 20:33:16 10° NNE 20:37:29 44° E 20:41:10 13° SSE
Cosmos 1437 Rocket 2.6 20:35:35 10° SSW 20:39:07 78° WNW 20:42:45 10° N
Cosmos 1933 Rocket 3.6 20:35:02 10° N 20:39:26 85° W 20:43:39 11° S
NOSS 3-4 (A) 4.5 20:34:15 10° WSW 20:39:31 47° NW 20:45:27 10° NE
NOSS 3-4 (C) 4.4 20:34:20 10° WSW 20:39:37 48° NW 20:45:33 10° NE
Lacrosse 4 Rocket 3.1 20:38:04 10° NW 20:41:36 26° WSW 20:45:09 10° SSW
Cosmos 1733 Rocket 4.1 20:43:40 10° N 20:47:39 33° ENE 20:50:53 14° SE
Cosmos 1515 Rocket 4.1 20:43:22 10° SSW 20:47:45 61° WNW 20:52:10 10° N
Cosmos 1703 4.4 20:47:58 15° SE 20:49:51 22° E 20:52:37 10° NE
PSLV R/B 3.8 20:49:06 12° S 20:52:01 56° WSW 20:55:17 10° NNW
SL-4 R/B 2.2 20:49:30 10° SW 20:53:29 46° SSE 20:57:23 10° ENE
Cosmos 1869 Rocket 3.5 20:49:32 10° N 20:53:57 90° ENE 20:57:38 14° S
SL-16 R/B 2.8 20:49:01 10° NW 20:54:28 50° WSW 20:59:33 12° S
Cosmos 407 Rocket 4.3 20:53:44 14° SSE 20:57:23 33° ESE 21:01:55 10° NE
Cosmos 2263 Rocket 2.3 20:51:45 10° SSW 20:57:27 87° WNW 21:03:11 10° NNE
Cosmos 540 Rocket 4.4 20:52:49 10° NNW 20:57:38 39° ENE 21:01:54 13° SE
Cosmos 2227 Rocket 3.2 20:53:02 10° SW 20:58:30 50° NW 21:04:01 10° NNE
Ariane Rocket 3.5 20:53:49 10° S 20:58:48 56° W 21:03:49 10° NNW
Meteor 1-16 Rocket 4.4 21:03:01 10° NNW 21:08:51 78° W 21:13:57 14° S
NOSS 3-1 (A) 4.4 21:02:31 10° NW 21:09:14 57° NE 21:17:29 10° ESE
Okean O Rocket 4.4 21:09:29 10° WSW 21:10:36 11° W 21:11:43 10° WNW
ASTEX 1 4.2 21:06:43 10° NNE 21:11:18 36° E 21:14:28 18° SE
Cosmos 2344 4.0 21:03:24 10° NW 21:11:20 84° NE 21:21:15 13° SE
Cosmos 2233 Rocket 4.2 21:05:18 10° NNW 21:11:38 76° W 21:17:17 13° S
Cosmos 1943 3.2 21:07:00 10° NNW 21:12:45 88° ENE 21:17:07 18° SSE
Cosmos 2292 Rocket 3.1 21:12:37 24° SSE 21:13:56 41° E 21:16:44 10° NNE
ATLAS 2AS CENTAUR R/B 4.1 21:12:28 15° SE 21:15:28 19° ESE 21:20:06 10° ENE
RESURS DK-1 4.1 21:11:56 10° WSW 21:15:36 33° NW 21:19:18 10° NNE
Cosmos 2251 Rocket 4.4 21:14:26 18° SSE 21:17:38 32° ESE 21:22:22 10° NE
IRIDIUM 104 4.5 21:14:56 17° SSE 21:18:52 61° E 21:24:01 10° N
Okean 2 3.2 21:16:12 17° S 21:19:05 75° E 21:22:59 10° NNE
USA 305 3.7 21:15:40 10° W 21:19:15 40° NNW 21:22:11 10° ENE
Cosmos 1892 2.9 21:18:28 24° SE 21:19:36 34° E 21:22:22 10° NNE
Cosmos 1269 Rocket 4.2 21:14:44 10° SSW 21:19:59 73° WNW 21:25:18 10° NNE
USA 290 3.1 21:17:33 10° SW 21:20:39 50° WNW 21:23:48 10° NNE
Cosmos 1862 Rocket 4.0 21:19:28 20° SSE 21:22:17 48° E 21:26:31 10° NNE
DELTA 2 DEB (DPAF) 3.8 21:18:37 10° NNE 21:22:31 65° ESE 21:25:12 19° S
COBE Rocket 3.9 21:17:40 10° NNE 21:22:44 84° ESE 21:27:00 14° SSW
Cosmos 1953 2.9 21:19:25 10° NNW 21:23:02 47° W 21:25:49 16° SSW
Meteor 2-16 Rocket 4.5 21:19:25 10° SSW 21:25:31 83° W 21:31:39 10° N
IRIDIUM 114 4.3 21:24:03 18° S 21:28:00 73° E 21:33:14 10° N
Cosmos 2219 3.7 21:22:24 10° SW 21:28:05 63° WNW 21:33:50 10° NNE
SJ 16-02 3.5 21:27:45 10° ESE 21:28:57 12° E 21:30:25 10° ENE
USA 307 2.8 21:31:29 15° SSW 21:33:57 40° SE 21:37:38 10° ENE
Cosmos 1603 3.8 21:28:20 10° NNW 21:33:58 73° ENE 21:38:04 19° SE
CZ-4C R/B 3.2 21:31:11 10° NNE 21:34:20 45° E 21:35:40 28° SSE
Cosmos 2082 4.0 21:29:31 10° SW 21:35:13 71° WNW 21:40:59 10° NNE
IRIDIUM 103 4.3 21:33:12 18° S 21:37:09 86° E 21:42:24 10° N
USA 59 Rocket 0.6 21:35:46 10° NNW 21:39:02 44° NE 21:42:43 13° ESE
Cosmos 1763 Rocket 3.5 21:40:06 10° NNW 21:45:15 77° WSW 21:48:27 23° SSE
CZ-2C R/B 4.0 21:42:40 10° NNE 21:47:09 54° E 21:49:46 24° S
Okean 3 3.9 21:45:02 14° SSW 21:48:22 55° WNW 21:52:23 10° N
ARIANE 5 R/B 2.7 21:46:14 24° SSE 21:48:54 70° ENE 21:53:23 10° N
Geosat 4.1 21:45:47 10° NNE 21:50:49 81° WNW 21:55:50 10° SW
MetOp-A 3.7 21:51:30 24° SSE 21:54:20 81° ENE 21:58:45 10° NNW
Cosmos 2227 4.1 21:51:47 14° SSW 21:56:41 79° ESE 22:02:19 10° NNE
OPS 6432 4.1 22:01:58 10° NW 22:05:17 87° WSW 22:06:31 35° SE
Cosmos 1844 Rocket 2.7 22:01:37 18° SSW 22:05:55 73° ESE 22:11:36 10° NNE
NOSS 3-1 (C) 4.4 22:02:48 10° NW 22:09:47 53° WSW 22:15:34 21° S
Cosmos 1703 Rocket 4.0 22:08:01 27° SSE 22:09:58 48° E 22:14:07 10° NNE
Cosmos 1782 Rocket 4.5 22:06:30 10° N 22:10:39 39° ENE 22:13:07 21° SE
Cosmos 1271 Rocket 2.5 22:13:13 34° S 22:14:36 67° E 22:18:12 10° NNE
Cosmos 1707 Rocket 4.2 22:12:25 17° SW 22:15:32 48° WNW 22:19:43 10° N
Cosmos 1844 3.6 22:16:10 19° SSW 22:20:17 82° ESE 22:25:53 10° NNE
Cosmos 2228 Rocket 3.8 22:18:25 17° SW 22:21:35 49° WNW 22:25:54 10° N
Aureole 3 Rocket 3.6 22:26:12 10° NNW 22:29:17 36° W 22:30:59 24° SW
SL-4 R/B 2.1 22:27:17 10° W 22:31:25 76° N 22:35:24 10° ENE
NOSS 2-1 (D) 3.2 22:28:34 10° NW 22:32:03 72° SW 22:34:10 29° SSE
Cosmos 676 Rocket 4.1 22:32:07 26° S 22:35:01 66° ESE 22:40:14 10° NNE
Okean 1-7 3.8 22:35:17 19° SW 22:37:54 42° WNW 22:41:51 10° N
Cosmos 540 Rocket 4.4 22:34:29 10° NW 22:39:05 34° WSW 22:41:36 22° SSW
ATLAS 3B R/B 3.5 22:32:50 10° NW 22:40:43 62° NE 22:48:19 10° ESE
Cosmos 546 4.4 22:37:32 10° WNW 22:41:21 75° SSW 22:44:25 15° ESE
ALOS 2 2.7 22:39:35 30° S 22:41:38 67° WSW 22:46:02 10° NNW
Meteor 1-24 Rocket 3.8 22:43:34 25° S 22:47:12 80° E 22:53:04 10° NNE
Cosmos 1833 Rocket 3.2 22:42:13 10° NNW 22:47:46 55° NE 22:52:21 15° SE
Cosmos 1328 3.9 22:46:49 35° SSE 22:47:55 50° E 22:51:26 10° NNE
USA 305 3.6 22:45:07 10° WNW 22:48:12 34° N 22:50:31 10° ENE
Cosmos 1908 Rocket 4.1 22:44:40 10° NNW 22:48:54 49° W 22:50:55 27° SSW
Cosmos 2279 Rocket 4.4 22:46:17 10° N 22:52:22 55° ENE 22:56:36 20° SSE
Tsikada Rocket 4.0 22:49:22 25° S 22:53:10 80° E 22:59:29 10° NNE
TiPS 4.5 22:53:28 72° E 22:53:28 72° E 22:55:42 10° NE
Cosmos 371 Rocket 4.0 22:53:23 27° SSE 22:55:21 38° ESE 22:59:50 10° NE
Cosmos 1954 Rocket 4.2 22:52:58 20° SW 22:56:35 69° WNW 23:01:47 10° NNE
Cosmos 2242 Rocket 4.3 22:56:12 26° SE 22:58:09 41° E 23:02:20 10° NNE
Cosmos 2251 Rocket 4.5 22:54:48 11° SW 22:59:42 44° WNW 23:04:51 10° NNE
NOSS 3-1 (A) 4.4 22:53:19 10° NW 23:00:18 51° WSW 23:05:38 23° S
NOSS 2-1 (C) 3.8 22:57:45 10° NW 23:01:11 42° SW 23:02:29 32° S
Cosmos 841 Rocket 3.7 22:58:29 10° NNW 23:03:39 60° WSW 23:06:15 28° S
USA 307 3.0 23:00:17 10° W 23:03:57 63° NNW 23:07:54 10° ENE
Landsat 5 4.5 23:00:00 10° N 23:04:00 41° WNW 23:06:35 19° SW
SeaSat 1 2.4 23:01:31 22° SE 23:04:41 83° ENE 23:09:37 10° NNW
H-2A R/B 4.1 23:02:26 12° ESE 23:04:59 23° ENE 23:07:52 10° NNE
ATLAS 2AS CENTAUR R/B 2.7 22:59:49 18° SSW 23:05:23 77° SE 23:12:19 10° NE
SJ 16-02 1.2 23:04:19 30° SSW 23:06:25 87° WNW 23:10:46 10° NNE
BREEZE-M DEB (TANK) 4.2 23:05:40 22° SE 23:07:02 25° ESE 23:14:54 10° ENE
Cosmos 2034 Rocket 4.5 23:01:47 10° NNW 23:07:46 50° W 23:11:34 22° SSW
NOSS 2-1 (E) 3.9 23:05:41 10° WNW 23:09:08 41° SW 23:10:27 32° S
TIMED 4.4 23:10:22 30° SSW 23:12:25 85° WNW 23:16:44 10° NNE
Meteor 2-5 Rocket 4.0 23:10:07 23° SSW 23:13:53 72° WNW 23:19:52 10° N
CZ-2C R/B 3.6 23:15:41 13° SE 23:19:58 43° ENE 23:25:01 10° N
Cosmos 1814 Rocket 4.4 23:15:42 10° NNW 23:21:01 62° ENE 23:25:06 17° SE
Cosmos 1300 Rocket 4.3 23:18:39 10° NNW 23:22:48 41° W 23:24:42 27° SW
Cosmos 1943 Rocket 3.7 23:20:08 15° SE 23:22:48 22° ESE 23:26:55 10° NE
Cosmos 1850 Rocket 4.0 23:21:08 28° S 23:23:47 67° ESE 23:28:55 10° NNE
Cosmos 2082 Rocket 3.8 23:19:07 10° NNW 23:24:14 32° NE 23:29:20 10° ESE
USA 59 Rocket 1.2 23:24:46 10° WNW 23:27:58 25° SW 23:28:34 25° SW
Cosmos 304 Rocket 3.7 23:26:36 30° S 23:28:55 73° ESE 23:33:41 10° NNE
Cosmos 2278 Rocket 3.5 23:27:24 19° SSE 23:30:15 28° ESE 23:35:00 10° NE
Landsat 4 4.3 23:34:25 23° ESE 23:35:39 35° ENE 23:38:19 10° N
Cosmos 968 Rocket 3.4 23:33:29 27° SSW 23:36:26 88° ESE 23:41:43 10° NNE
Cosmos 1634 Rocket 4.3 23:31:02 10° NNW 23:37:07 54° W 23:40:48 24° SSW
Cosmos 2151 Rocket 3.9 23:36:27 10° N 23:40:52 63° ENE 23:43:29 24° SSE
Okean 2 Rocket 3.6 23:38:30 10° N 23:42:55 55° ENE 23:45:44 21° SSE
Cosmos 1606 3.1 23:40:27 10° NNW 23:43:14 33° W 23:43:44 30° WSW
Okean 1 Rocket 4.0 23:40:15 10° N 23:44:33 44° ENE 23:47:42 17° SE
Cosmos 1378 Rocket 3.6 23:44:46 29° S 23:46:54 70° E 23:51:17 10° NNE
IDEFIX/ARIANE 42P 4.3 23:43:45 10° NE 23:47:47 22° E 23:51:36 11° SE
SL-24 R/B - RUBIN 2 3.8 23:45:07 10° NW 23:49:59 59° SW 23:52:24 26° SSE
